This is the latest recevied weather packets stored in our database for station/object W5ADC. If no packets are shown the sender has not sent any weather packets the latest 10 day(s).
| Time | Temp. | Humidity | Pressure | Rain* | Wind** | Luminosity | Snow |
|---|---|---|---|---|---|---|---|
| 1777209490 | 23.33° C | 91% | 1005.6 hPa | 0 mm | - | 32 W/m² | - |
| 1777209186 | 22.78° C | 92% | 1005.6 hPa | 0 mm | - | 28 W/m² | - |
| 1777208883 | 22.78° C | 92% | 1005.5 hPa | 0 mm | - | 29 W/m² | - |
| 1777208579 | 22.78° C | 93% | 1005.4 hPa | 0 mm | - | 34 W/m² | - |
| 1777208276 | 22.78° C | 93% | 1005.6 hPa | 0 mm | - | 35 W/m² | - |
| 1777207971 | 22.78° C | 93% | 1005.5 hPa | 0 mm | - | 23 W/m² | - |
| 1777207667 | 22.22° C | 94% | 1005.5 hPa | 0 mm | - | 31 W/m² | - |
| 1777207362 | 22.22° C | 94% | 1005.5 hPa | 0 mm | - | 28 W/m² | - |
| 1777207061 | 22.22° C | 94% | 1005.3 hPa | 0 mm | - | 22 W/m² | - |
| 1777206758 | 21.67° C | 93% | 1005.2 hPa | 0 mm | - | 12 W/m² | - |
| 1777206453 | 21.67° C | 93% | 1005.3 hPa | 0 mm | - | 8 W/m² | - |
| 1777206153 | 21.67° C | 93% | 1005.2 hPa | 0 mm | - | 5 W/m² | - |
| 1777205850 | 22.22° C | 93% | 1004.9 hPa | 0 mm | - | 6 W/m² | - |
| 1777205546 | 22.22° C | 93% | 1004.7 hPa | 0 mm | - | 5 W/m² | - |
| 1777205243 | 22.78° C | 94% | 1004.5 hPa | 0 mm | - | 3 W/m² | - |
| 1777204939 | 22.78° C | 94% | 1004.5 hPa | 0 mm | - | 4 W/m² | - |
| 1777204634 | 22.78° C | 94% | 1004.2 hPa | 0 mm | - | 4 W/m² | - |
| 1777204330 | 22.78° C | 94% | 1004.1 hPa | 0 mm | - | 3 W/m² | - |
| 1777204027 | 22.78° C | 94% | 1004 hPa | 0 mm | - | 2 W/m² | - |
| 1777203722 | 22.78° C | 93% | 1004 hPa | 0 mm | - | 1 W/m² | - |
| 1777203417 | 22.78° C | 93% | 1003.7 hPa | 0 mm | - | 1 W/m² | - |
| 1777203113 | 22.78° C | 93% | 1003.4 hPa | 0 mm | - | 0 W/m² | - |
| 1777202810 | 22.78° C | 93% | 1003.7 hPa | 0 mm | - | 0 W/m² | - |
| 1777202508 | 22.78° C | 93% | 1003.5 hPa | 0 mm | - | 0 W/m² | - |
| 1777202203 | 22.78° C | 93% | 1003.4 hPa | 0 mm | - | 0 W/m² | - |
* Rain latest hour (hover to see other rain measurements)
** Current wind speed in m/s (hover to see current wind gust speed)